Вернуться в каталог

OPS 4682 DEB

АктивенPO
NORAD 20131·DEBRIS·🇺🇸 United States

Запущен Apr 3, 1965 с Vandenberg Space Force Base

Loading…

Ближайшие Пролёты (ближайшие 24 часа)

TLE

СвежийSource: Space-Track

Эпоха: Sep 11, 2026, 06:55 UTC

1 20131U 65027BD  26254.28850381  .00000120  00000-0  36915-3 0  9991
2 20131  90.2450   6.5056 0034531  89.6677 299.0698 13.00401747776167

Отслеживайте OPS 4682 DEB в реальном времени с AllMySat

Download on the App Store